Regional Weather Roundup
Issued by NWS Little Rock, AR

Home | Current Version | Previous Version | Graphics & Text | Print | Product List | Glossary On
Versions: 1 2 3 4 5 6 7 8 9 10 11 12 13 14 15 16 17 18 19 20 21 22 23 24 25 26 27 28 29 30 31 32 33 34 35 36 37 38 39 40 41 42 43 44 45 46 47 48 49 50
000
ASUS44 KLZK 072110
RWRLZK
ARKANSAS STATE WEATHER ROUNDUP
NATIONAL WEATHER SERVICE LITTLE ROCK AR
ISSUED BY NATIONAL WEATHER SERVICE MEMPHIS TN
400 PM CDT TUE JUL 07 2015

NOTE: "FAIR" INDICATES FEW OR NO CLOUDS BELOW 12,000 FEET WITH NO
SIGNIFICANT WEATHER AND/OR OBSTRUCTIONS TO VISIBILITY.

ARZ001-003-010-029-072200-
NORTHWEST ARKANSAS

CITY           SKY/WX    TMP DP  RH WIND       PRES   REMARKS
FORT SMITH     HVY RAIN  75  71  87 SW8       29.97R VSB 3/4
HARRISON       LGT RAIN  72  70  93 W7        30.01F
BENTONVILLE    CLOUDY    73  70  88 SW7       30.02F
ROGERS         LGT RAIN  73  71  93 SW6       30.02F
SILOAM SPGS    CLOUDY    72  68  88 S5        30.01F
HIGHFILL       LGT RAIN  73  72  96 SW6       30.01F
SPRINGDALE     RAIN      72  72 100 S6        30.02F FOG
$$

ARZ004-005-016-072200-
NORTH CENTRAL ARKANSAS

CITY           SKY/WX    TMP DP  RH WIND       PRES   REMARKS
BATESVILLE     CLOUDY    84  77  79 W7        29.98F HX  94
FLIPPIN        CLOUDY    73  72  94 NE5       29.97F
MTN HOME       LGT RAIN  73  72  96 CALM      29.99F
$$

ARZ040-041-072200-
WEST CENTRAL ARKANSAS

CITY           SKY/WX    TMP DP  RH WIND       PRES   REMARKS
MOUNT IDA      PTSUNNY   86  73  65 SW3       29.97F HX  93
$$

ARZ017-025-026-028-072200-
NORTHEAST ARKANSAS

CITY           SKY/WX    TMP DP  RH WIND       PRES   REMARKS
JONESBORO      CLOUDY    87  76  69 S13       29.97F HX  97
NEWPORT        LGT RAIN  84  77  80 SW7       29.98S HX  93
WALNUT RIDGE   CLOUDY    84  72  65 NW18G25   29.97S THUNDER
BLYTHEVILLE    PTSUNNY   89  76  65 SW12G22   29.99R HX 100
NW BLYTHEVILLE PTSUNNY   88  75  66 SW16G25   29.98  HX  97
$$

ARZ022-033-042-044-072200-
CENTRAL ARKANSAS

CITY           SKY/WX    TMP DP  RH WIND       PRES   REMARKS
LITTLE ROCK    PTSUNNY   91  71  51 S15       29.98F HX  97
JACKSONVILLE   MOSUNNY   91  74  56 S14       29.97F HX 100
SEARCY         MOSUNNY   92  76  59 S13       29.98F HX 104
HOT SPRINGS    MOSUNNY   90  72  55 SW7       29.98F HX  97
RUSSELLVILLE   TSTM      78  73  84 S6G23     29.98R
$$

ARZ036-072200-
EAST ARKANSAS

CITY           SKY/WX    TMP DP  RH WIND       PRES   REMARKS
WEST MEMPHIS   MOSUNNY   87  76  69 S15G22    30.00F HX  97
$$

ARZ050-070-073-072200-
SOUTHWEST ARKANSAS

CITY           SKY/WX    TMP DP  RH WIND       PRES   REMARKS
TEXARKANA      SUNNY     92  73  53 S16G22    29.97F HX 100
EL DORADO      MOSUNNY   91  73  55 S13       30.01F HX  99
DEQUEEN        MOSUNNY   90  77  65 S13G20    29.93F HX 103
$$

ARZ056-057-069-072200-
SOUTHEAST ARKANSAS

CITY           SKY/WX    TMP DP  RH WIND       PRES   REMARKS
PINE BLUFF     MOSUNNY   90  75  61 S13       30.00F HX 100
STUTTGART      MOSUNNY   91  73  55 MISG      29.99F HX 100
MONTICELLO     MOSUNNY   91  74  57 S9        30.02F HX 100
$$



USA.gov is the U.S. government's official web portal to all federal, state and local government web resources and services.